Wind_Speed
26 26 26 25 24 22 20 19 18 18 18 18 17 16 16 16 16 17 18 19 19 19 17 16 16 15 14 14 14 14 15 15 15 15 15 15 15 14 15 14 14 14
26 25 25 25 24 22 21 20 19 18 17 17 17 17 17 16 16 17 17 17 18 18 17 16 16 15 15 15 16 17 17 17 17 17 17 17 16 15 15 15 14 14
26 25 26 25 25 24 22 20 19 18 18 19 19 19 18 17 18 17 16 15 16 17 17 16 16 17 18 18 18 19 19 18 18 17 17 17 16 16 15 15 14 14
26 26 26 25 25 24 22 21 20 19 20 21 21 20 19 19 19 18 17 15 15 16 18 18 18 19 20 19 19 19 19 18 18 17 18 18 17 16 15 14 14 14
27 26 25 25 24 23 22 22 21 21 22 23 22 20 19 19 19 19 18 15 15 16 19 20 19 20 21 20 18 18 18 18 18 18 18 18 17 17 15 14 15 14
26 25 25 24 23 22 23 23 22 21 22 24 22 20 19 19 18 18 17 16 17 18 18 19 20 21 22 21 19 19 19 19 19 19 19 19 18 17 15 15 15 15
27 26 24 23 23 23 23 23 23 22 22 24 22 20 20 20 20 20 18 18 20 20 19 20 21 23 23 22 21 20 20 20 20 20 20 19 18 16 15 15 14 14
29 26 24 23 22 23 24 24 23 22 22 22 21 21 24 25 24 22 22 23 24 22 21 21 22 23 23 22 22 21 21 21 21 20 20 19 17 15 15 14 14 14
29 26 24 24 24 24 24 24 23 23 22 23 23 23 25 25 25 24 24 26 27 26 23 22 22 23 22 22 22 22 21 21 21 21 19 18 15 14 14 14 15 16
27 26 25 24 24 24 24 24 23 22 22 22 22 23 22 22 23 24 24 24 26 26 25 23 22 22 22 22 22 22 22 23 22 20 19 18 17 16 15 15 15 14
26 25 25 25 25 24 24 24 24 23 21 19 18 19 21 23 23 23 23 22 24 25 24 23 23 23 23 23 23 24 24 24 22 21 20 20 19 19 16 13 13 12
27 26 26 25 24 24 23 24 24 24 23 20 18 20 20 21 22 23 22 22 23 23 23 23 23 24 25 24 25 25 24 23 22 22 21 20 19 18 15 12 13 14
27 28 27 26 25 24 23 24 23 23 22 21 21 22 21 22 24 24 23 23 23 22 22 21 21 23 25 25 25 24 24 25 24 23 22 19 18 17 13 13 14 13
28 28 27 26 26 25 24 24 24 24 23 22 22 24 25 25 27 27 25 24 24 24 22 20 20 21 23 24 24 24 24 25 25 24 22 19 17 15 14 15 14 12
28 27 26 27 27 27 26 26 25 25 25 24 23 24 24 24 26 28 26 25 26 26 23 21 20 21 22 22 23 23 23 22 22 22 21 19 16 14 15 15 13 12
27 26 26 26 27 28 28 28 27 26 25 24 22 23 23 23 24 27 27 26 26 27 25 23 22 21 21 20 20 21 22 21 22 23 21 18 17 16 16 15 13 13
27 26 26 27 27 28 28 28 28 26 25 23 22 23 24 24 25 27 28 26 26 26 26 25 24 23 21 19 18 19 19 21 24 25 23 19 18 19 19 17 15 13
28 27 28 28 29 29 29 29 28 26 25 24 24 24 25 24 26 29 28 27 26 27 27 27 26 25 24 23 21 20 19 21 24 25 23 21 20 20 19 17 15 13
29 28 29 29 29 29 29 28 27 27 26 25 25 25 25 25 28 29 28 27 27 27 28 28 28 27 26 26 25 22 20 22 24 24 24 22 21 20 19 17 16 14
29 29 29 29 28 28 27 26 27 28 27 25 25 25 26 27 29 30 29 28 28 27 27 28 29 29 27 27 25 22 21 23 25 25 23 22 21 21 19 19 18 15
30 30 30 29 28 26 25 25 26 26 26 25 25 26 27 28 29 29 29 28 28 28 28 28 29 28 27 26 24 22 22 24 25 25 23 23 23 21 19 20 19 17
31 31 31 29 27 26 25 25 25 25 25 25 25 26 26 27 28 29 29 29 29 29 29 29 29 28 27 25 24 23 23 25 25 25 26 26 24 21 21 21 20 18
31 31 30 29 27 25 25 25 26 25 24 24 24 25 26 28 29 29 29 29 29 29 29 30 30 28 26 25 24 25 26 26 27 26 26 26 24 22 24 24 22 20
31 31 29 28 25 25 26 25 24 22 21 22 23 24 27 29 29 28 28 28 28 29 30 31 31 29 27 26 27 28 28 29 28 26 26 26 24 24 27 26 23 21
30 29 28 26 25 24 25 23 20 19 20 22 24 25 27 27 26 25 25 26 28 30 31 31 32 30 29 29 30 31 31 31 29 28 28 28 27 27 28 26 24 22
27 27 27 26 25 25 24 20 18 19 20 22 24 25 25 25 24 24 25 26 27 28 30 31 32 31 30 30 31 32 33 33 32 31 31 31 30 29 29 27 26 25
Wind_Direction
230 226 225 227 230 234 238 241 243 243 247 250 251 249 244 238 232 229 232 234 234 236 239 244 247 247 246 246 246 247 249 253 257 258 255 255 259 262 263 265 265 266
230 227 227 228 230 234 239 242 244 244 244 247 252 253 249 246 241 235 233 232 233 234 236 242 247 246 243 243 245 246 248 252 254 254 251 253 258 260 262 264 263 264
227 226 225 227 230 234 236 241 245 244 241 241 243 245 246 250 253 248 241 236 234 234 235 241 246 245 242 242 245 245 245 247 249 249 249 252 256 258 261 263 262 262
225 224 225 227 229 233 236 238 240 239 237 238 240 240 239 244 251 251 247 242 234 231 233 237 242 245 244 244 245 244 242 243 246 246 247 250 252 255 258 260 259 259
225 225 226 227 228 232 234 235 237 236 235 237 238 237 239 244 246 244 241 236 233 232 231 231 235 240 242 242 243 242 239 239 241 242 243 245 248 251 255 257 257 258
225 227 228 229 229 230 231 233 235 234 234 235 231 229 237 243 242 238 234 229 227 230 231 229 228 233 236 239 239 239 237 236 237 237 238 240 244 248 251 253 256 259
225 229 230 231 230 231 231 233 234 232 233 233 226 223 229 230 229 229 228 226 222 222 228 228 225 226 231 234 235 236 238 238 237 237 238 240 242 244 246 249 255 260
226 228 230 230 229 231 232 233 234 232 232 233 230 222 215 213 219 224 224 221 218 218 222 225 225 226 228 229 230 231 234 237 238 239 242 241 240 243 247 249 253 255
223 224 225 226 227 230 232 234 236 235 234 234 234 226 212 207 213 217 216 217 217 217 218 222 225 227 227 227 228 229 232 236 239 241 242 239 239 244 248 250 252 250
219 218 219 222 225 227 230 233 234 235 236 238 238 234 223 217 219 218 214 215 217 216 216 219 223 225 228 228 229 231 233 236 240 241 238 236 238 238 238 244 248 242
214 214 216 218 222 224 226 227 227 229 233 243 253 249 235 226 223 223 220 215 214 216 216 217 221 226 228 229 230 232 232 235 237 236 234 235 240 239 236 237 234 219
212 214 216 217 219 220 221 223 227 230 230 234 247 255 253 242 230 226 226 221 218 220 221 222 225 227 229 230 231 231 231 233 232 229 230 234 238 240 237 226 215 205
218 219 220 220 219 219 221 223 228 232 230 227 230 235 244 248 241 232 229 227 225 225 226 227 228 228 228 230 231 232 231 230 225 223 225 230 235 234 222 209 206 203
226 225 224 224 223 223 225 227 229 232 229 226 228 227 227 232 237 237 233 230 229 229 229 231 232 231 230 229 231 235 234 228 223 222 223 224 224 217 203 201 207 206
229 228 228 228 227 227 230 231 233 234 230 226 228 230 227 224 229 234 234 230 231 232 231 232 232 232 232 233 236 237 234 229 227 226 223 215 205 196 197 205 208 207
228 228 229 228 228 230 233 235 236 235 233 231 229 229 230 226 224 229 232 232 233 233 231 230 231 232 233 236 239 238 236 234 230 228 224 213 200 196 201 208 207 207
225 226 228 228 228 231 234 237 237 235 234 236 233 231 232 229 224 227 232 235 236 234 232 232 234 235 234 235 238 242 243 239 231 227 225 219 213 209 207 206 206 206
223 223 224 225 226 229 232 235 235 233 233 235 235 235 235 231 226 228 232 235 236 236 235 236 238 239 237 237 240 244 246 241 234 228 225 223 219 212 209 210 211 210
220 219 220 222 224 226 228 230 229 229 229 233 236 238 237 232 228 229 231 234 235 236 237 239 240 239 239 239 241 242 242 240 234 230 228 225 217 210 209 213 217 219
217 216 217 220 223 224 224 223 224 225 227 231 235 236 234 232 230 229 231 232 233 235 238 240 240 240 239 239 238 237 236 234 231 229 227 218 209 207 210 214 217 221
216 215 217 220 222 223 221 220 221 223 224 226 229 231 232 232 230 230 231 233 234 236 237 239 241 240 238 236 234 231 229 228 225 222 215 206 203 207 213 215 215 214
217 217 218 221 223 222 220 219 220 220 221 224 227 229 231 232 231 232 235 237 237 237 237 240 241 239 235 233 230 225 223 220 216 210 205 204 208 213 215 214 212 210
221 220 221 221 221 220 220 221 220 220 221 223 225 227 228 229 231 234 237 239 239 239 238 239 240 237 234 232 226 220 218 215 210 208 209 211 214 215 214 213 213 212
224 223 221 219 218 221 225 226 223 220 220 223 225 227 229 232 234 237 239 240 240 241 240 240 239 237 234 231 224 219 219 216 212 212 213 211 212 214 214 214 215 216
226 224 221 219 220 227 231 229 222 218 221 225 227 228 230 232 234 235 237 238 239 240 240 239 239 239 236 231 225 221 220 220 219 218 214 212 215 216 214 215 219 223
225 223 223 225 229 234 233 226 220 220 221 224 227 228 229 230 231 230 232 234 236 237 237 238 239 240 237 231 226 223 223 224 224 222 219 220 221 220 218 221 227 230
Height
794 795 796 796 797 798 798 800 801 803 804 805 807 807 808 810 811 812 813 813 815 816 818 819 819 820 820 820 821 821 822 823 824 825 826 826 827 827 828 828 828 829
793 794 795 796 797 797 797 798 800 802 803 804 804 804 805 807 808 809 810 812 814 815 817 818 818 818 818 819 820 820 821 822 823 824 824 825 826 826 826 827 827 828
790 792 793 794 795 796 797 797 799 800 802 801 800 801 803 803 804 806 808 810 812 814 815 816 816 816 816 817 818 819 820 820 821 822 823 823 824 825 825 826 826 827
788 789 790 792 793 795 796 797 798 799 799 799 799 801 802 801 802 805 806 809 811 811 811 812 813 814 815 816 817 817 818 819 820 821 821 822 822 823 823 824 825 825
786 787 788 790 791 793 795 795 797 797 797 798 798 800 800 800 801 803 805 807 808 808 807 809 811 812 813 814 815 816 817 817 818 819 820 820 821 821 822 823 823 824
785 786 787 788 789 790 792 793 794 795 796 796 797 800 800 799 799 801 802 804 805 805 805 807 809 811 812 814 814 815 815 815 816 817 818 819 820 820 821 822 822 823
783 784 785 786 787 788 789 790 791 793 793 794 796 800 802 800 799 798 799 802 803 804 804 806 808 810 811 813 813 814 814 814 815 816 817 818 819 820 820 821 822 822
781 782 784 785 785 786 787 788 789 790 791 792 794 798 800 800 800 798 799 800 802 803 804 805 806 808 810 811 812 812 813 814 814 815 816 817 818 819 820 820 821 821
779 781 782 783 784 785 785 786 787 789 790 790 791 793 795 797 798 798 798 799 801 802 803 805 806 807 808 809 810 811 811 812 813 814 815 816 817 818 819 819 819 819
778 779 781 781 782 783 783 785 786 788 789 790 790 790 792 794 795 796 797 798 799 801 802 804 805 806 807 808 808 809 809 810 812 813 814 815 815 815 815 816 817 818
776 778 779 779 780 781 782 783 784 785 787 789 792 792 791 791 792 794 795 796 798 799 801 802 804 805 806 806 807 807 808 809 811 812 812 813 813 813 814 815 816 817
774 775 776 777 778 779 780 782 783 783 784 786 789 792 794 793 792 792 794 795 797 798 800 801 802 803 804 805 805 806 807 808 809 810 810 811 812 813 813 814 815 816
771 772 774 775 776 777 778 779 781 782 782 783 784 786 790 793 793 792 793 794 796 797 798 799 800 801 802 803 804 804 804 805 805 806 807 809 810 811 812 813 814 815
768 770 771 773 774 775 776 777 778 779 779 780 782 782 783 785 789 791 791 793 794 796 797 798 799 799 800 800 801 802 802 802 803 804 804 806 807 809 811 813 813 813
766 768 769 770 772 772 773 774 775 776 777 777 779 780 781 782 785 788 790 791 792 793 795 796 796 797 797 798 799 799 800 801 803 804 803 803 805 808 811 812 812 813
764 766 767 768 769 769 771 772 773 774 775 776 777 779 780 781 783 786 787 789 790 791 793 794 794 795 795 796 797 797 798 799 801 803 803 801 802 806 810 810 810 811
762 763 764 765 766 767 768 769 771 772 773 775 776 778 779 780 781 783 785 786 788 789 790 791 792 793 794 794 795 795 796 797 798 799 800 800 800 803 807 808 808 809
759 760 762 763 763 765 766 767 769 771 772 774 775 776 777 779 780 781 782 784 785 787 788 789 790 790 791 792 792 793 794 795 795 796 797 798 799 801 804 806 808 808
757 758 759 760 761 762 764 766 767 769 770 772 773 774 775 776 777 779 780 781 783 784 785 786 787 788 788 789 789 790 792 793 794 794 795 796 797 799 802 804 806 807
754 755 756 758 759 761 762 764 765 766 768 770 771 771 772 773 774 776 777 779 780 781 782 783 784 785 785 786 787 788 789 790 791 792 793 794 796 797 799 801 803 805
750 752 754 755 757 759 760 762 763 764 766 767 768 768 769 770 772 773 775 776 777 777 778 779 780 782 783 783 784 785 787 788 789 791 792 793 794 795 797 799 801 802
747 749 751 753 755 757 758 760 761 762 764 765 766 766 767 768 770 771 772 773 773 774 775 776 777 779 780 781 782 783 785 786 787 789 790 791 792 793 796 798 799 800
744 747 748 751 753 755 756 757 758 760 762 764 764 765 765 766 767 767 768 770 771 772 773 773 775 777 778 779 780 781 783 784 786 787 788 789 790 792 794 796 797 797
741 744 746 748 750 752 753 754 756 758 760 761 761 761 762 763 764 765 767 768 769 770 771 772 772 774 775 776 777 779 780 782 784 785 786 787 788 790 792 793 794 795
739 741 744 746 748 749 751 753 755 756 757 757 757 757 759 760 762 764 765 766 767 768 768 769 769 770 771 773 774 776 777 779 781 783 784 785 785 787 789 790 792 793
737 739 741 744 745 747 749 751 753 753 753 754 754 755 757 759 760 761 761 762 763 764 765 766 766 767 768 770 772 773 775 777 778 779 781 782 782 784 786 788 789 790